Location: Willingham
(52.3167°N, 0.0667°E)
Time: 14:37:38
(UTC+00:00)

NOSS 7 (H) - Pass Details

Date: 19 May 2025
Orbit: 362 x 1535 km, 63.3° (Epoch: 17 June)

Event Time Altitude Azimuth Distance (km) Brightness Sun altitude
Rises 20:52:22 0° 314° (NW) 2,221 10.5 -7.4°
Reaches altitude 10° 20:54:20 10° 314° (NW) 1,359 8.6 -7.6°
Maximum altitude 20:57:13 88° 39° (NE) 383 4.0 -7.9°
Enters shadow 21:00:10 12° 134° (SE) 1,388 6.2 -8.2°
